RH
35 44 42 32 47 55 54 44 30 58 62 63 49 52 61 75 69 74 73 78 83 55 39 22 27 46 54 56 44 41 46 64 73 76 78 81 81 78 75 82 82 77 83 82 81 80 81 83 85
32 37 35 42 58 61 56 41 43 55 71 66 62 69 76 88 84 85 88 83 74 45 28 28 38 43 43 43 55 69 75 79 83 84 84 82 82 84 64 60 62 66 71 80 74 68 70 73 74
31 30 37 58 68 63 53 36 59 64 65 62 71 74 79 97 89 80 78 72 54 41 37 41 45 50 60 71 77 82 81 75 72 71 66 58 53 50 45 42 38 36 37 40 41 54 72 83 82
24 49 47 63 65 51 41 45 60 63 67 66 70 84 81 85 78 82 70 59 59 60 60 64 67 78 84 85 82 76 72 68 66 62 56 50 44 35 28 22 20 18 16 15 17 18 22 27 36
49 53 63 72 58 47 36 58 55 55 65 70 67 90 92 84 81 79 75 70 63 71 78 90 90 84 83 80 76 73 69 64 56 48 41 33 25 17 13 12 12 12 12 13 14 13 13 13 15
61 58 65 74 58 44 32 51 49 59 73 79 80 85 96 83 78 83 82 80 77 74 85 90 89 88 82 78 74 68 57 48 42 33 22 13 11 11 12 12 12 13 14 15 16 16 16 16 16
67 70 60 59 53 41 32 47 53 70 76 76 70 93 100 98 84 82 84 85 87 80 81 89 90 84 80 76 72 61 51 41 26 14 12 11 12 13 13 14 14 15 15 16 16 16 17 18 19
61 63 51 52 49 45 31 42 47 59 76 73 71 95 98 99 86 79 84 82 82 84 82 90 89 84 79 74 69 61 45 21 13 12 13 13 14 16 17 17 18 18 17 17 16 15 14 14 14
59 68 63 48 48 38 30 46 52 60 74 76 70 79 76 91 87 83 87 86 81 83 85 94 89 80 75 69 64 48 20 13 14 14 15 16 17 18 19 20 20 19 16 14 14 15 17 19 22
63 79 58 37 36 30 30 45 52 67 86 96 83 74 85 90 89 83 84 87 80 83 86 95 85 78 73 64 50 22 14 14 14 15 16 17 19 19 19 17 15 14 14 16 19 23 25 28 29
64 72 50 39 26 25 31 49 54 69 80 81 74 86 92 90 92 81 82 79 78 82 90 88 80 74 71 58 30 14 15 15 14 16 19 18 18 18 16 14 14 16 19 23 25 26 27 29 33
59 52 50 41 35 35 45 45 58 56 52 54 62 62 82 92 91 78 83 81 85 84 86 80 77 75 73 50 20 15 16 17 16 18 20 18 20 20 16 14 15 19 23 25 27 30 34 42 46
56 50 42 37 32 34 43 51 52 46 48 54 68 84 84 90 90 78 82 85 85 86 84 79 78 78 67 33 17 16 17 17 17 19 21 23 26 22 15 15 18 23 28 30 32 36 40 42 41
64 49 45 40 35 42 49 48 42 65 65 72 76 87 90 86 91 81 89 88 88 92 87 79 79 75 54 24 17 18 18 17 19 20 23 30 27 20 14 14 20 29 32 35 38 42 42 46 45
61 49 44 37 36 43 40 45 56 81 86 85 92 93 94 97 93 82 85 88 89 91 86 80 81 70 41 22 19 19 19 18 22 22 31 29 23 19 14 13 21 31 38 40 41 43 49 49 45
48 42 52 36 34 35 42 58 60 96 91 100 98 96 97 98 95 85 85 88 92 90 81 83 81 66 35 24 22 20 20 21 23 27 31 24 24 23 19 13 21 34 42 44 45 48 49 44 48
49 66 52 39 32 37 45 60 54 96 90 100 98 95 95 95 95 87 88 89 92 82 83 83 78 60 35 27 25 23 21 22 26 31 26 26 29 29 25 17 20 34 44 48 48 50 52 46 47
70 56 45 45 35 46 53 58 62 83 87 91 88 88 92 93 87 84 86 86 83 82 84 84 73 52 37 31 29 25 22 23 30 29 28 29 31 31 30 25 19 32 44 48 52 54 55 60 54
47 44 44 37 34 44 56 66 68 71 84 91 95 97 94 90 82 81 75 74 82 82 85 78 65 48 39 35 32 26 23 26 32 28 30 30 31 32 33 32 24 28 41 46 54 60 57 52 57
63 46 41 35 31 44 53 60 48 55 70 82 88 95 94 92 84 79 75 78 78 76 75 70 58 47 42 39 32 27 25 30 30 30 32 31 32 33 34 36 34 25 39 45 44 50 61 76 90
46 48 44 42 34 44 42 48 45 42 43 67 80 80 87 87 78 76 77 78 71 64 66 63 55 48 43 37 31 27 31 32 30 32 31 32 33 35 36 38 39 35 33 46 52 47 54 84 90
45 38 40 41 54 66 46 67 50 45 45 47 73 83 79 81 78 77 76 72 64 57 51 46 40 38 36 33 31 33 35 32 33 31 30 32 34 34 37 40 41 40 43 43 52 60 58 74 98
48 43 45 50 71 54 46 67 51 42 45 48 46 67 80 80 80 77 71 69 64 47 33 31 33 36 36 36 38 38 36 33 35 35 34 33 26 27 35 41 44 42 42 48 48 51 61 60 76
43 44 54 69 76 71 53 63 61 53 42 43 40 39 62 69 68 67 71 70 53 33 31 32 36 39 40 41 39 40 38 40 39 38 34 24 21 23 29 39 45 46 43 47 51 51 53 59 63
47 57 83 75 75 69 81 76 54 34 41 37 41 37 31 34 42 54 62 44 32 32 33 34 38 39 40 41 42 42 42 41 39 34 25 21 21 22 24 25 34 45 48 49 53 57 55 60 57
64 56 78 66 74 68 57 65 56 38 40 34 29 35 33 33 32 32 33 34 35 37 41 41 40 38 40 42 43 42 39 34 27 24 24 26 28 27 25 24 25 30 35 40 49 56 60 60 58
44 62 50 70 75 65 66 45 33 43 46 46 41 34 36 39 40 39 39 42 45 44 39 36 35 37 38 37 32 28 24 24 26 27 28 29 30 31 32 31 29 28 30 34 41 48 59 67 64
49 47 48 78 64 62 64 54 55 48 56 56 59 46 41 43 44 45 49 49 45 40 35 34 32 30 27 24 24 24 25 26 27 28 29 30 31 32 32 33 33 33 33 34 36 43 58 67 72
56 58 56 56 62 66 67 67 62 56 56 62 60 45 42 43 46 47 46 45 42 36 32 29 26 24 24 24 26 26 26 26 26 27 27 28 29 30 31 32 34 35 36 37 39 43 55 64 71
51 41 47 69 34 85 84 70 41 47 52 54 52 44 41 41 44 43 41 40 37 32 29 26 25 26 26 26 26 26 25 25 25 26 26 27 29 30 31 33 35 38 39 40 45 48 58 68 72
Wind_Speed
11 10 7 4 2 4 3 5 2 3 2 2 9 4 7 6 2 3 22 14 17 15 14 14 14 13 11 10 8 8 8 8 7 7 7 7 7 7 7 7 9 9 9 10 10 10 10 10 9
9 9 5 1 4 3 5 4 4 4 12 23 18 12 6 3 5 18 21 18 16 15 16 16 15 13 12 10 9 8 7 7 6 6 6 5 6 7 8 7 6 6 7 8 9 11 12 12 12
9 10 6 3 3 5 5 4 5 10 16 3 7 10 4 2 12 26 19 21 19 17 16 16 15 13 12 9 7 7 6 5 4 4 4 6 6 7 8 9 9 9 9 9 9 8 8 8 10
9 6 4 4 5 6 4 4 7 10 6 5 16 7 8 8 23 17 23 21 19 18 17 15 13 12 10 9 7 5 3 3 3 4 5 6 8 9 10 10 11 11 11 12 12 12 12 13 13
10 4 3 4 5 5 4 7 17 6 6 8 4 5 5 15 11 21 21 19 17 18 16 14 12 10 8 7 5 3 2 3 4 6 7 9 10 11 11 11 12 13 13 14 14 15 15 16 16
6 2 3 6 6 5 4 10 8 5 8 12 12 9 4 16 19 22 18 18 15 13 14 12 11 9 8 5 3 2 2 4 5 7 9 10 11 11 12 13 14 14 15 15 16 16 17 17 18
4 3 5 7 8 3 4 12 7 9 10 5 18 5 12 23 25 22 20 15 14 10 10 10 9 8 6 3 1 2 4 5 7 8 9 10 11 11 13 14 14 15 16 17 18 18 18 19 20
2 3 4 7 9 6 4 8 10 9 4 20 14 8 10 30 27 23 20 16 14 13 10 9 9 7 4 2 1 3 5 6 8 9 10 11 12 13 14 16 17 18 20 21 21 22 22 22 22
2 3 3 7 9 6 11 5 7 7 17 8 8 14 15 34 29 26 23 21 17 15 11 11 9 6 4 2 3 4 6 7 7 9 11 12 13 14 15 17 18 19 20 22 22 22 23 23 21
4 3 4 2 4 11 14 12 15 8 9 4 10 12 27 35 32 30 26 24 20 16 14 13 10 6 4 3 3 5 6 7 8 10 11 13 13 15 16 17 17 19 19 20 21 22 22 22 22
5 4 1 6 6 9 15 7 9 18 3 14 27 26 35 36 33 27 24 21 19 16 16 14 10 7 4 4 4 5 6 8 10 11 12 13 13 14 14 16 17 18 19 19 19 19 20 20 20
3 8 4 7 8 6 9 16 7 12 4 15 23 29 37 36 34 27 25 24 21 17 16 13 9 6 5 4 4 5 7 8 11 12 13 13 13 15 16 17 18 19 19 19 19 18 18 17 17
3 3 9 8 13 10 11 9 10 7 6 16 24 32 36 34 31 24 23 22 20 18 16 12 9 7 6 5 5 5 7 9 11 13 13 14 15 16 17 18 19 19 19 19 18 18 18 18 17
7 9 11 8 14 4 7 4 8 5 16 22 26 32 34 31 30 25 25 23 21 19 16 13 10 8 7 6 5 6 8 10 11 12 13 15 16 17 18 19 19 19 19 19 18 19 19 18 18
5 2 6 7 2 2 13 4 3 15 22 25 27 30 31 28 27 23 23 22 20 17 15 13 11 9 8 7 6 6 8 10 11 12 13 14 15 17 18 19 19 19 19 18 17 17 17 18 17
1 3 3 4 1 3 2 4 2 17 25 23 25 27 27 25 24 21 21 21 20 18 15 14 12 11 10 9 8 8 9 9 10 11 12 13 15 17 18 18 19 19 19 19 18 19 19 19 16
0 4 4 3 1 1 2 3 3 16 22 23 24 24 23 22 21 20 20 20 19 16 16 15 14 12 11 10 9 9 8 9 10 10 10 12 14 16 18 18 19 19 19 19 19 19 19 19 14
6 4 3 4 1 4 5 3 4 15 20 23 23 23 23 24 22 20 17 17 17 17 17 16 15 14 13 12 10 9 8 9 9 9 9 12 14 16 17 18 18 18 18 17 17 18 16 15 13
2 2 5 2 5 4 1 6 5 11 14 17 22 24 25 24 18 19 18 16 16 18 19 18 16 14 13 12 11 9 8 8 8 8 10 12 14 16 16 17 17 17 17 19 18 16 15 12 12
6 5 3 0 2 4 3 3 2 3 6 20 25 26 27 24 23 23 23 20 18 17 18 18 16 15 13 12 11 9 9 8 7 7 10 13 15 16 16 16 16 16 16 16 17 16 14 13 12
4 8 4 5 3 6 5 4 3 3 4 17 22 26 27 26 26 25 25 21 19 17 16 16 15 15 14 13 11 10 9 8 7 8 11 14 16 17 17 15 15 14 14 15 16 16 15 11 8
5 2 7 9 5 3 3 4 5 5 6 6 21 25 27 29 27 24 24 23 19 16 15 15 15 15 14 12 10 9 9 9 9 11 14 17 18 18 17 15 13 13 13 13 14 15 16 11 8
2 3 5 4 6 4 3 3 6 1 7 7 16 26 29 28 27 26 26 23 19 17 15 13 14 13 12 11 9 10 10 11 12 14 17 17 16 15 15 14 13 12 12 12 13 13 13 12 10
2 4 8 5 4 2 1 4 5 6 8 7 11 22 26 27 27 25 26 24 21 18 15 13 12 12 11 10 11 12 12 12 14 16 16 14 14 14 14 14 13 12 12 12 13 13 12 11 10
6 3 3 3 3 5 2 2 8 4 7 7 19 30 24 21 22 23 25 23 19 16 14 12 11 10 10 11 12 12 13 14 16 16 15 16 16 15 14 14 14 13 13 13 14 14 13 12 11
4 2 5 5 4 3 1 6 7 6 4 10 15 31 25 23 23 21 20 18 17 16 13 12 11 11 12 11 11 12 13 13 15 16 17 17 17 17 16 15 15 14 14 14 15 15 14 14 13
1 2 3 7 3 4 3 7 9 6 5 5 11 22 27 26 24 21 20 18 17 14 13 11 11 10 9 9 9 11 13 15 16 17 17 17 17 17 16 16 15 15 15 15 15 15 14 14 14
1 3 3 3 3 3 4 5 6 4 8 5 9 24 29 25 23 22 20 19 16 13 12 11 10 8 8 9 11 12 13 13 13 14 14 15 15 16 16 17 17 17 16 16 16 15 14 15 14
1 0 4 4 4 4 1 6 6 5 7 9 13 27 28 27 26 24 21 18 16 15 13 11 9 9 9 9 10 10 11 11 12 12 13 13 13 14 14 14 14 15 15 14 16 15 14 15 15
1 3 5 4 4 1 3 6 3 6 5 14 19 25 25 26 26 24 21 20 18 16 12 11 10 9 8 8 8 9 9 9 10 10 10 11 11 12 13 14 14 14 14 13 14 14 14 15 15
Wind_Direction
224 236 257 303 58 72 238 264 258 121 92 194 137 148 133 66 128 185 138 146 156 155 152 145 144 145 139 133 121 111 99 86 72 63 55 47 35 21 13 9 354 349 347 346 344 343 342 341 342
212 207 222 358 109 134 249 247 206 165 125 104 99 93 56 84 108 137 144 149 156 151 146 144 144 142 136 128 118 107 95 81 66 55 47 20 6 357 342 344 332 330 329 334 332 336 337 333 330
199 169 171 134 146 186 211 184 154 132 142 105 108 85 73 68 138 141 143 145 150 145 144 143 140 136 132 126 115 106 90 68 38 10 353 341 334 331 332 330 326 322 318 313 305 297 292 298 304
174 163 127 121 214 255 216 173 135 130 110 108 121 71 86 108 137 146 144 145 146 146 144 141 139 138 135 128 127 109 78 36 6 346 333 329 327 325 325 323 319 317 314 312 309 305 299 290 283
182 178 115 150 219 267 269 176 156 145 117 132 139 124 77 156 161 151 147 147 155 150 146 146 144 143 138 132 126 100 40 357 341 332 330 328 326 324 322 321 319 318 315 312 309 306 302 299 295
186 191 134 179 196 242 269 190 155 117 131 125 113 99 110 149 160 155 151 152 160 159 156 155 150 147 141 139 129 74 6 340 332 328 325 325 324 324 320 319 316 316 314 312 311 310 307 302 296
147 118 200 163 179 215 230 176 174 145 137 136 134 87 141 156 159 157 159 153 155 165 169 163 158 151 147 149 128 350 337 330 328 326 327 327 326 325 324 322 320 320 318 316 313 309 306 302 300
221 113 171 194 181 198 197 152 171 133 107 139 138 151 170 170 164 162 164 164 171 175 177 178 170 163 168 196 278 321 324 328 329 331 335 337 333 330 328 326 325 323 321 319 317 315 313 309 305
174 64 211 196 157 183 162 128 150 141 142 149 158 158 173 167 164 170 171 174 181 177 182 181 177 173 189 240 291 311 321 326 337 343 343 339 336 333 329 326 325 323 322 321 320 317 316 314 311
122 127 232 266 214 182 170 154 151 140 141 91 144 157 164 167 170 176 183 181 180 186 188 182 180 183 201 247 288 309 324 336 343 346 343 335 334 335 332 329 329 326 324 321 320 319 317 316 312
171 189 348 332 275 198 166 139 160 145 228 192 172 159 166 171 174 183 191 196 192 194 194 185 184 189 204 247 286 308 329 340 341 343 342 337 340 337 336 335 333 330 328 327 325 322 322 322 321
193 236 248 303 328 305 171 155 124 165 203 207 179 169 170 176 180 189 194 189 189 194 196 193 193 202 223 255 283 311 330 339 338 340 342 342 343 346 342 341 339 337 335 334 332 333 335 333 331
191 269 270 300 307 289 165 147 149 156 165 171 169 170 174 177 182 188 197 195 200 202 200 200 204 214 235 256 283 313 327 333 336 337 343 343 348 346 346 345 344 341 339 338 338 338 338 335 334
320 247 268 315 314 263 143 123 149 161 157 157 167 175 178 179 184 189 192 199 204 204 203 205 211 222 238 258 280 306 320 328 334 338 341 346 345 347 348 347 346 345 342 340 341 341 339 336 337
313 251 321 290 300 243 124 32 113 156 161 159 170 177 181 183 186 199 206 203 206 203 205 209 218 230 240 256 274 298 315 324 333 335 342 342 345 349 349 348 347 347 345 343 340 339 337 333 335
224 71 135 281 105 207 227 218 114 161 163 159 168 176 183 188 195 204 209 206 205 205 207 213 223 232 241 255 273 295 308 320 327 333 339 343 349 351 350 348 347 349 348 343 341 339 339 341 347
53 185 166 289 164 239 103 171 172 166 165 159 170 178 186 191 195 199 205 208 204 211 215 220 228 234 242 254 271 288 302 314 322 330 339 347 349 350 350 350 349 349 349 344 340 337 338 343 356
188 171 144 229 258 57 83 130 139 171 171 170 177 182 184 187 192 193 201 204 212 219 221 223 229 235 244 256 270 283 295 308 315 326 339 343 345 347 348 349 349 349 350 347 342 340 341 349 359
271 137 117 265 301 99 51 136 167 177 187 182 188 187 188 193 193 201 201 211 222 219 221 226 233 239 249 261 274 279 288 301 311 325 334 338 340 341 343 344 346 347 351 354 349 338 346 360 9
238 154 150 199 353 90 53 62 359 175 212 199 193 196 196 195 202 204 205 215 222 222 225 229 236 244 254 265 269 273 283 296 302 316 327 331 330 330 333 337 340 344 349 352 352 350 351 3 9
209 157 167 153 17 55 83 359 262 244 236 213 207 205 201 200 203 205 209 214 218 223 229 237 243 250 259 263 263 269 280 289 289 302 315 320 321 321 323 327 329 335 342 349 354 350 346 352 1
155 179 145 135 101 179 30 237 262 232 238 216 210 211 207 207 209 211 212 213 219 225 232 238 246 252 254 254 257 264 276 279 282 294 310 317 316 315 314 314 316 321 334 341 348 350 352 339 344
93 114 128 102 90 87 354 61 267 151 237 231 219 214 214 213 216 214 215 217 220 226 231 239 245 242 243 245 251 264 271 273 280 295 308 312 315 318 313 309 311 311 319 327 335 340 344 353 341
21 71 47 60 90 26 282 136 268 203 200 213 217 211 211 216 219 219 217 214 217 225 235 241 224 223 230 241 254 263 268 275 287 297 304 308 314 317 315 310 309 306 307 313 319 325 328 333 336
58 47 27 24 17 209 296 33 244 223 236 213 199 204 200 198 197 198 201 205 212 223 224 213 211 220 233 246 256 265 276 286 293 300 305 307 307 306 305 307 306 304 301 304 306 312 316 315 317
56 250 149 167 172 240 74 238 249 221 248 230 219 210 199 193 190 192 195 201 206 205 201 205 216 228 238 249 261 274 284 290 295 298 301 304 307 309 307 306 304 303 300 298 299 303 307 305 307
74 6 171 102 33 65 224 288 295 218 241 216 200 195 188 187 188 191 191 192 192 196 206 214 221 231 243 258 271 279 283 288 293 296 298 300 301 302 302 301 301 302 301 299 296 297 298 296 299
77 172 57 3 119 240 277 280 237 249 236 203 183 180 180 181 182 184 186 187 194 201 208 213 218 230 247 259 269 279 287 290 294 299 301 302 303 302 301 300 299 298 297 297 295 294 292 290 293
140 112 55 114 129 174 256 259 218 226 220 202 192 182 178 181 183 184 187 194 199 204 204 208 217 235 252 268 278 282 288 293 297 299 301 304 305 305 305 303 301 300 298 296 293 293 287 285 288
183 183 141 117 210 176 152 276 220 251 259 196 187 184 185 186 186 190 195 197 199 200 201 211 227 244 256 265 275 284 292 301 310 315 317 319 319 320 319 317 314 310 304 300 295 293 289 286 286